Point Salines, Grenada

1:05 PM AST on September 27, 2016 (GMT -0400)
Point Salines International

Weather History for TGPY - October, 2013

Change the Weather History Date:

Tuesday, October 22, 2013

  Actual Average Record
Temperature  
Mean Temperature 80 °F -  
Max Temperature 86 °F 85 °F 91 °F (2014)
Min Temperature 74 °F 76 °F 74 °F (2013)
Cooling Degree Days 15    
Growing Degree Days 30 (Base 50)    
Moisture  
Dew Point 77 °F    
Average Humidity 85    
Maximum Humidity 100    
Minimum Humidity 67    
Precipitation  
Precipitation 0.08 in - - ()
Sea Level Pressure  
Sea Level Pressure 29.88 in    
Wind  
Wind Speed 12 mph ()    
Max Wind Speed 21 mph    
Max Gust Speed -    
Visibility 6.4 miles    
Events Rain    
Averages and records for this station are not official NWS values.
T = Trace of Precipitation, MM = Missing Value Source: Averaged Metar Reports

Daily Weather History Graph

Daily Weather History Graph

Search for Another Location

Airport or City:

Trip Planner

Search our weather history database for the weather conditions in past years. The results will help you decide how hot, cold, wet, or windy it might be!

Date:

Astronomy

Oct. 22, 2013 Rise Set
Actual Time 5:57 AM AST 5:45 PM AST
Civil Twilight 5:36 AM AST 6:06 PM AST
Nautical Twilight 5:11 AM AST 6:31 PM AST
Astronomical Twilight 4:46 AM AST 6:56 PM AST
Moon 8:47 PM AST (10/22) 8:56 AM AST (10/22)
Length of Visible Light 12h 30m
Length of Day
11h 47m
Waning Gibbous, 87% of the Moon is Illuminated
Oct 22
Waning Gibbous
Oct 26
Last Quarter
Nov 3
New
Nov 10
First Quarter
Nov 17
Full

Hourly Weather History & Observations

Time (AST) Temp. Heat Index Dew Point Humidity Pressure Visibility Wind Dir Wind Speed Gust Speed Precip Events Conditions
12:00 AM 78.8 °F - 77.0 °F 94% 29.92 in 5.0 mi SE 16.1 mph - N/A   Mostly Cloudy
1:00 AM 77.0 °F - 75.2 °F 94% 29.89 in 5.6 mi ESE 13.8 mph - N/A   Mostly Cloudy
2:00 AM 78 °F - 76 °F 94% 29.89 in 5 mi SE 6.9 mph - - Rain Light Rain Showers
2:00 AM 78.8 °F - 77.0 °F 94% 29.89 in 5.0 mi SE 6.9 mph - N/A   Mostly Cloudy
3:00 AM 78.8 °F - 75.2 °F 89% 29.86 in 4.3 mi Calm Calm - N/A   Overcast
4:00 AM 78.8 °F - 75.2 °F 89% 29.89 in 4.3 mi ESE 16.1 mph - N/A Rain Light Rain Showers
5:00 AM 78 °F - 77 °F 95% 29.88 in 3 mi East 11.5 mph - - Rain Heavy Rain Showers
5:00 AM 77.0 °F - 77.0 °F 100% 29.89 in 3.1 mi East 11.5 mph - N/A Rain Rain Showers
5:20 AM 77.0 °F - 77.0 °F 100% 29.89 in 4.3 mi ESE 17.3 mph - N/A   Mostly Cloudy
6:00 AM 77.0 °F - 75.2 °F 94% 29.89 in 6.2 mi East 11.5 mph - N/A Rain Light Rain Showers
7:00 AM 78.8 °F - 75.2 °F 89% 29.89 in 6.2 mi ESE 9.2 mph - N/A   Mostly Cloudy
8:00 AM 81 °F - 77 °F 84% 29.92 in 6 mi East 8.1 mph - -   Partly Cloudy
8:00 AM 80.6 °F 87.1 °F 77.0 °F 89% 29.92 in 6.2 mi East 8.1 mph - N/A   Mostly Cloudy
9:00 AM - - - N/A% 29.92 in 6.2 mi ESE 12.7 mph - N/A   Scattered Clouds
10:00 AM 84.2 °F 94.1 °F 77.0 °F 79% 29.92 in 6.2 mi ESE 15.0 mph - N/A   Scattered Clouds
11:00 AM 84 °F - 77 °F 74% 29.91 in 9 mi East 16.1 mph - -   Partly Cloudy
11:00 AM 84.2 °F 94.1 °F 77.0 °F 79% 29.89 in 6.2 mi East 16.1 mph - N/A   Scattered Clouds
12:00 PM 86.0 °F 99.3 °F 78.8 °F 79% 29.89 in 6.2 mi ESE 16.1 mph - N/A   Scattered Clouds
1:00 PM 86.0 °F 96.9 °F 77.0 °F 74% 29.86 in 6.2 mi SE 15.0 mph - N/A   Scattered Clouds
2:00 PM 87 °F - 78 °F 67% 29.84 in 12 mi SE 15.0 mph - -   Partly Cloudy
2:00 PM 86.0 °F 96.9 °F 77.0 °F 74% 29.83 in 6.2 mi SE 15.0 mph - N/A   Partly Cloudy
3:00 PM 86.0 °F 96.9 °F 77.0 °F 74% 29.83 in 6.2 mi ESE 13.8 mph - N/A   Scattered Clouds
4:00 PM 84.2 °F 96.1 °F 78.8 °F 84% 29.83 in 6.2 mi SE 20.7 mph - N/A   Scattered Clouds
5:00 PM 84 °F - 78 °F 77% 29.85 in 11 mi SE 17.3 mph - -   Partly Cloudy
5:00 PM 84.2 °F 96.1 °F 78.8 °F 84% 29.83 in 6.2 mi SE 17.3 mph - N/A   Mostly Cloudy
6:00 PM 80.6 °F 86.2 °F 75.2 °F 84% 29.83 in 6.2 mi SE 16.1 mph - N/A   Mostly Cloudy
7:00 PM 80.6 °F 86.2 °F 75.2 °F 84% 29.86 in 6.2 mi SE 13.8 mph - N/A   Mostly Cloudy
8:00 PM 83 °F - 77 °F 77% 29.89 in 11 mi SE 18.4 mph - -   Widespread Dust
8:00 PM 82.4 °F 90.9 °F 77.0 °F 84% 29.89 in 6.2 mi SE 18.4 mph - N/A   Mostly Cloudy
9:00 PM 82.4 °F 90.9 °F 77.0 °F 84% 29.89 in 6.2 mi SE 16.1 mph - N/A   Mostly Cloudy
10:00 PM 82.4 °F 90.9 °F 77.0 °F 84% 29.92 in 6.2 mi SE 17.3 mph - N/A   Mostly Cloudy
11:00 PM 83 °F - 77 °F 78% 29.92 in 11 mi ESE 11.5 mph - -   Widespread Dust
11:00 PM 82.4 °F 90.9 °F 77.0 °F 84% 29.92 in 6.2 mi ESE 11.5 mph - N/A   Mostly Cloudy